Total_Precipitation_Accumulation
0.14 0.14 0.13 0.17 0.20 0.25 0.30 0.37 0.53 0.68 0.83 0.96 1.10 1.35 1.52 1.61 1.58 1.59 1.67 1.57 1.37 1.43 1.51 1.45 1.67 1.70 1.61 1.53 1.39 1.33 1.24 0.96 0.70 0.82 0.78 0.46 0.26 0.19 0.16 0.13 0.09 0.08 0.06
0.07 0.06 0.07 0.09 0.12 0.15 0.22 0.29 0.44 0.66 0.89 1.11 1.30 1.50 1.80 1.94 1.94 2.00 1.95 1.90 1.77 1.77 1.68 1.71 1.89 1.92 1.98 2.03 1.78 1.75 1.71 1.38 0.99 1.17 1.37 0.94 0.62 0.32 0.21 0.18 0.14 0.13 0.12
0.07 0.06 0.05 0.06 0.07 0.09 0.14 0.21 0.34 0.55 0.86 1.16 1.41 1.60 1.83 2.08 2.17 2.07 2.02 2.06 2.14 2.16 2.04 1.97 2.05 2.04 2.08 2.21 2.19 2.05 2.01 1.85 1.49 1.31 1.42 1.24 1.01 0.74 0.32 0.24 0.23 0.23 0.21
0.10 0.08 0.06 0.06 0.07 0.10 0.13 0.17 0.31 0.47 0.70 0.98 1.29 1.52 1.78 2.07 2.14 2.12 2.09 2.12 2.23 2.30 2.26 2.21 2.24 2.20 2.11 2.15 2.21 2.16 2.23 2.30 1.98 1.66 1.36 1.13 1.07 1.01 0.66 0.38 0.31 0.35 0.35
0.15 0.12 0.10 0.10 0.12 0.15 0.18 0.24 0.38 0.52 0.72 0.97 1.28 1.57 1.76 1.91 2.07 2.08 2.00 1.93 1.96 1.98 1.98 2.09 2.21 2.19 2.15 2.12 2.25 2.33 2.42 2.33 2.17 1.94 1.77 1.59 1.35 1.01 0.93 0.80 0.55 0.44 0.39
0.14 0.17 0.21 0.22 0.22 0.24 0.30 0.37 0.49 0.70 0.86 0.96 1.10 1.23 1.44 1.71 1.82 1.91 1.94 1.92 1.87 1.75 1.71 1.81 1.90 1.97 1.99 1.99 1.99 2.09 2.20 2.26 2.30 2.13 1.89 1.77 1.62 1.46 1.31 0.99 0.77 0.67 0.51
0.25 0.33 0.43 0.40 0.37 0.40 0.49 0.56 0.62 0.72 0.77 0.77 0.85 0.96 1.11 1.32 1.45 1.55 1.71 1.74 1.74 1.66 1.63 1.60 1.68 1.76 1.76 1.85 1.98 1.92 1.91 2.02 2.13 2.09 1.97 1.88 1.68 1.53 1.52 1.29 0.99 0.85 0.61
0.39 0.54 0.65 0.70 0.64 0.62 0.64 0.61 0.62 0.60 0.61 0.65 0.72 0.78 0.84 0.96 1.06 1.15 1.30 1.40 1.39 1.33 1.29 1.32 1.42 1.58 1.67 1.75 1.83 1.83 1.79 1.79 1.79 1.85 1.88 1.88 1.79 1.56 1.45 1.40 1.37 1.16 0.90
0.57 0.73 0.86 0.93 0.87 0.78 0.72 0.68 0.68 0.65 0.58 0.60 0.67 0.73 0.76 0.77 0.79 0.83 0.83 0.91 1.00 1.01 1.01 1.05 1.17 1.33 1.46 1.50 1.55 1.63 1.65 1.65 1.60 1.65 1.68 1.64 1.68 1.60 1.41 1.32 1.28 1.29 1.10
0.80 0.91 0.98 0.97 0.96 1.00 0.93 0.77 0.71 0.71 0.66 0.73 0.74 0.71 0.68 0.66 0.64 0.66 0.70 0.70 0.79 0.90 0.94 0.96 0.99 1.08 1.18 1.28 1.37 1.45 1.51 1.47 1.42 1.43 1.45 1.50 1.56 1.61 1.58 1.52 1.41 1.32 1.20
1.00 1.02 1.08 1.01 0.89 0.89 0.87 0.84 0.79 0.73 0.74 0.79 0.79 0.69 0.66 0.66 0.64 0.60 0.61 0.66 0.75 0.86 0.89 0.93 0.96 0.96 1.05 1.10 1.17 1.28 1.38 1.35 1.32 1.27 1.27 1.38 1.43 1.58 1.64 1.58 1.48 1.40 1.29
0.94 0.98 1.04 0.97 0.81 0.77 0.68 0.71 0.79 0.79 0.85 0.85 0.78 0.70 0.70 0.72 0.76 0.73 0.65 0.64 0.70 0.71 0.80 0.88 0.86 0.85 0.92 0.98 1.07 1.18 1.23 1.24 1.17 1.10 1.08 1.18 1.27 1.38 1.51 1.59 1.47 1.40 1.30
0.73 0.72 0.73 0.80 0.76 0.72 0.64 0.70 0.76 0.81 0.85 0.86 0.84 0.75 0.65 0.68 0.71 0.71 0.63 0.61 0.63 0.67 0.78 0.86 0.94 0.83 0.76 0.85 0.92 1.00 1.03 0.97 0.92 0.91 0.92 0.96 1.03 1.12 1.24 1.36 1.45 1.41 1.32
0.52 0.50 0.46 0.52 0.55 0.57 0.62 0.66 0.77 0.89 0.93 0.91 0.84 0.81 0.74 0.75 0.70 0.59 0.54 0.56 0.57 0.54 0.59 0.69 0.76 0.77 0.72 0.71 0.73 0.76 0.87 0.84 0.74 0.68 0.69 0.74 0.77 0.81 0.94 1.08 1.23 1.36 1.40
0.37 0.35 0.32 0.32 0.34 0.37 0.45 0.52 0.65 0.81 0.93 0.97 0.92 0.85 0.79 0.68 0.60 0.55 0.46 0.46 0.43 0.41 0.46 0.62 0.75 0.78 0.74 0.74 0.76 0.71 0.75 0.79 0.75 0.67 0.60 0.56 0.57 0.62 0.69 0.80 1.02 1.18 1.30
0.27 0.24 0.24 0.21 0.23 0.29 0.36 0.36 0.48 0.63 0.74 0.79 0.80 0.81 0.77 0.61 0.53 0.46 0.39 0.36 0.36 0.36 0.40 0.46 0.58 0.71 0.70 0.83 0.85 0.80 0.73 0.76 0.72 0.68 0.68 0.66 0.61 0.50 0.43 0.47 0.60 0.80 0.99
0.23 0.21 0.20 0.21 0.23 0.30 0.31 0.32 0.41 0.52 0.57 0.61 0.64 0.66 0.61 0.48 0.43 0.34 0.30 0.32 0.32 0.34 0.37 0.41 0.52 0.65 0.80 0.81 0.69 0.76 0.73 0.70 0.69 0.64 0.64 0.69 0.68 0.71 0.58 0.50 0.47 0.50 0.61
0.16 0.21 0.18 0.17 0.19 0.24 0.29 0.37 0.40 0.41 0.41 0.45 0.49 0.47 0.47 0.42 0.35 0.27 0.27 0.28 0.30 0.34 0.36 0.39 0.44 0.52 0.68 0.69 0.59 0.75 0.74 0.73 0.72 0.68 0.67 0.72 0.75 0.74 0.83 0.79 0.70 0.63 0.63
0.07 0.10 0.09 0.09 0.10 0.10 0.11 0.14 0.17 0.19 0.23 0.30 0.36 0.40 0.40 0.37 0.31 0.26 0.33 0.39 0.37 0.36 0.35 0.35 0.38 0.40 0.48 0.54 0.48 0.56 0.67 0.76 0.76 0.67 0.65 0.69 0.70 0.89 0.94 0.82 0.80 0.75 0.68
0.02 0.03 0.03 0.03 0.03 0.02 0.02 0.03 0.05 0.09 0.13 0.19 0.24 0.28 0.31 0.34 0.38 0.46 0.54 0.55 0.51 0.42 0.38 0.37 0.35 0.37 0.39 0.50 0.36 0.44 0.58 0.71 0.80 0.72 0.65 0.83 0.80 0.82 0.75 0.61 0.74 0.80 0.72
0.00 0.00 0.01 0.01 0.00 0.00 0.00 0.00 0.01 0.02 0.02 0.04 0.10 0.18 0.29 0.35 0.44 0.56 0.59 0.57 0.52 0.42 0.37 0.35 0.34 0.34 0.43 0.57 0.49 0.51 0.59 0.69 0.78 0.81 0.79 0.75 0.81 0.64 0.60 0.59 0.63 0.77 0.76
0.00 0.00 0.00 0.00 0.00 0.00 0.00 0.00 0.00 0.00 0.01 0.03 0.07 0.13 0.20 0.29 0.42 0.51 0.50 0.50 0.48 0.45 0.41 0.40 0.38 0.40 0.50 0.58 0.58 0.56 0.59 0.64 0.72 0.75 0.67 0.61 0.64 0.48 0.43 0.42 0.51 0.62 0.63
0.00 0.00 0.00 0.00 0.00 0.00 0.00 0.00 0.00 0.00 0.00 0.01 0.02 0.06 0.11 0.22 0.36 0.39 0.39 0.42 0.45 0.44 0.43 0.41 0.39 0.38 0.43 0.53 0.63 0.53 0.46 0.44 0.50 0.55 0.55 0.47 0.41 0.36 0.32 0.34 0.41 0.44 0.53
0.00 0.00 0.00 0.00 0.00 0.00 0.00 0.00 0.00 0.00 0.00 0.00 0.00 0.01 0.02 0.05 0.10 0.15 0.20 0.26 0.31 0.33 0.32 0.35 0.39 0.41 0.42 0.41 0.45 0.47 0.43 0.38 0.37 0.34 0.29 0.27 0.28 0.31 0.32 0.32 0.33 0.36 0.52
0.00 0.00 0.00 0.00 0.00 0.00 0.00 0.00 0.00 0.00 0.00 0.00 0.00 0.01 0.02 0.03 0.04 0.06 0.09 0.12 0.15 0.19 0.25 0.30 0.34 0.34 0.38 0.38 0.40 0.41 0.41 0.45 0.48 0.48 0.37 0.29 0.27 0.28 0.31 0.33 0.38 0.49 0.58
0.00 0.00 0.00 0.00 0.00 0.00 0.00 0.00 0.00 0.00 0.00 0.00 0.00 0.00 0.01 0.01 0.01 0.02 0.03 0.04 0.06 0.09 0.12 0.15 0.18 0.18 0.24 0.31 0.33 0.35 0.37 0.39 0.45 0.48 0.48 0.46 0.46 0.45 0.42 0.40 0.37 0.39 0.45